Time,TemperatureF,DewpointF,PressureIn,WindDirection,WindDirectionDegrees,WindSpeedMPH,WindSpeedGustMPH,Humidity,HourlyPrecipIn,Conditions,Clouds,dailyrainin,SoftwareType,DateUTC
2016-02-13 00:08:00,-7.6,-15.0,30.60,West,271,5.0,6.0,70,0.00,,,0.00,weatherlink.com 1.10,2016-02-13 06:08:00,
2016-02-13 00:23:00,-7.8,-15.0,30.61,West,271,5.0,7.0,70,0.00,,,0.00,weatherlink.com 1.10,2016-02-13 06:23:00,
2016-02-13 00:38:00,-8.0,-15.0,30.61,West,273,5.0,7.0,71,0.00,,,0.00,weatherlink.com 1.10,2016-02-13 06:38:00,
2016-02-13 00:53:00,-8.3,-15.0,30.62,West,273,7.0,8.0,72,0.00,,,0.00,weatherlink.com 1.10,2016-02-13 06:53:00,
2016-02-13 01:08:00,-8.9,-15.0,30.62,West,273,7.0,10.0,74,0.00,,,0.00,weatherlink.com 1.10,2016-02-13 07:08:00,
2016-02-13 01:38:00,-8.8,-14.0,30.63,West,269,9.0,10.0,76,0.00,,,0.00,weatherlink.com 1.10,2016-02-13 07:38:00,
2016-02-13 01:53:00,-8.9,-15.0,30.64,West,275,4.0,10.0,76,0.00,,,0.00,weatherlink.com 1.10,2016-02-13 07:53:00,
2016-02-13 02:08:00,-9.0,-14.0,30.64,West,277,9.0,10.0,77,0.00,,,0.00,weatherlink.com 1.10,2016-02-13 08:08:00,
2016-02-13 02:23:00,-9.6,-15.0,30.65,West,270,6.0,9.0,77,0.00,,,0.00,weatherlink.com 1.10,2016-02-13 08:23:00,
2016-02-13 02:38:00,-9.7,-15.0,30.65,West,272,6.0,9.0,78,0.00,,,0.00,weatherlink.com 1.10,2016-02-13 08:38:00,
2016-02-13 02:53:00,-10.2,-15.0,30.65,West,273,1.0,6.0,78,0.00,,,0.00,weatherlink.com 1.10,2016-02-13 08:53:00,
2016-02-13 03:09:00,-10.5,-15.0,30.66,West,272,2.0,7.0,79,0.00,,,0.00,weatherlink.com 1.10,2016-02-13 09:09:00,
2016-02-13 03:24:00,-10.8,-16.0,30.66,West,275,5.0,8.0,79,0.00,,,0.00,weatherlink.com 1.10,2016-02-13 09:24:00,
2016-02-13 03:39:00,-11.0,-16.0,30.66,West,273,6.0,9.0,79,0.00,,,0.00,weatherlink.com 1.10,2016-02-13 09:39:00,
2016-02-13 04:09:00,-11.5,-16.0,30.67,West,273,4.0,7.0,80,0.00,,,0.00,weatherlink.com 1.10,2016-02-13 10:09:00,
2016-02-13 04:24:00,-11.6,-16.0,30.67,West,273,1.0,5.0,80,0.00,,,0.00,weatherlink.com 1.10,2016-02-13 10:24:00,
2016-02-13 04:39:00,-11.6,-16.0,30.67,West,273,4.0,5.0,80,0.00,,,0.00,weatherlink.com 1.10,2016-02-13 10:39:00,
2016-02-13 04:54:00,-12.0,-17.0,30.68,West,273,4.0,6.0,80,0.00,,,0.00,weatherlink.com 1.10,2016-02-13 10:54:00,
2016-02-13 05:09:00,-12.6,-17.0,30.68,West,272,4.0,7.0,80,0.00,,,0.00,weatherlink.com 1.10,2016-02-13 11:09:00,
2016-02-13 05:24:00,-12.7,-17.0,30.68,West,269,5.0,7.0,81,0.00,,,0.00,weatherlink.com 1.10,2016-02-13 11:24:00,
2016-02-13 05:39:00,-12.7,-17.0,30.68,West,266,5.0,7.0,81,0.00,,,0.00,weatherlink.com 1.10,2016-02-13 11:39:00,
2016-02-13 06:09:00,-12.9,-17.0,30.67,West,271,4.0,7.0,81,0.00,,,0.00,weatherlink.com 1.10,2016-02-13 12:09:00,
2016-02-13 06:25:00,-12.7,-17.0,30.66,West,272,5.0,5.0,81,0.00,,,0.00,weatherlink.com 1.10,2016-02-13 12:25:00,
2016-02-13 06:40:00,-13.5,-18.0,30.67,West,276,6.0,8.0,81,0.00,,,0.00,weatherlink.com 1.10,2016-02-13 12:40:00,